Weather Roundup
Issued by NWS

Home | Current Version | Previous Version | Text Only | Print | Product List | Glossary On
Versions: 1 2 3 4 5 6 7 8 9 10 11 12 13 14 15 16 17 18 19 20 21 22 23 24 25 26 27 28 29 30 31 32 33 34 35 36 37 38 39 40 41 42 43 44 45 46 47 48 49 50
000
NZUS93 KARX 262059
HRRWXR

CURRENT HOURLY OBSERVATIONS ACROSS
MUCH OF THE UPPER MISSISSIPPI VALLEY
NATIONAL WEATHER SERVICE LA CROSSE WI
400 PM CDT TUE AUG 26 2014


...SOUTHEAST MINNESOTA...


CITY           SKY/WX    TMP DP  RH WIND       PRES   REMARKS
ROCHESTER      SUNNY     71  54  54 CALM      30.16F
ROCHESTER/MAYO FAIR      71  47  43 NW5       30.16F
WINONA         SUNNY     72  55  56 NW3       30.15F
AUSTIN         SUNNY     72  54  53 W3        30.16F
ALBERT LEA     SUNNY     73  54  49 CALM      30.16F
DODGE CENTER   SUNNY     70  55  60 CALM      30.17F
PRESTON        SUNNY     69  60  72 CALM      30.17F
OWATONNA       SUNNY     72  52  49 W3        30.16F
FARIBAULT      SUNNY     75  45  33 N6        30.17R
$$

...ELSEWHERE IN MINNESOTA...


CITY           SKY/WX    TMP DP  RH WIND       PRES   REMARKS
MINNEAPOLIS    MOSUNNY   74  48  39 NW10      30.15
INTNL FALLS    CLOUDY    58  48  69 W10       30.14S
DULUTH         MOSUNNY   67  48  50 NW15      30.12F
RED WING       SUNNY     73  50  43 CALM      30.14S
REDWOOD FALLS  MOSUNNY   73  52  47 VRB5      30.17F
MANKATO        MOSUNNY   70  50  49 CALM      30.17S
WORTHINGTON    MOSUNNY   70  55  60 SE5       30.20F
FAIRMONT       PTSUNNY   66  50  55 NE3       30.18S
$$

...SOUTHWEST WISCONSIN...


CITY           SKY/WX    TMP DP  RH WIND       PRES   REMARKS
LA CROSSE      SUNNY     75  54  47 NW8       30.13F
PRAIRIE DU CHI SUNNY     77  54  45 NW3       30.12S
BOSCOBEL       SUNNY     80  59  48 W7        30.12S
LONE ROCK      NOT AVBL
PLATTEVILLE    SUNNY     76  62  62 N5        30.14S
FORT MC COY    MOSUNNY   73  52  47 W8        30.14F
VIROQUA        FAIR      73  55  53 CALM      30.15S
WIS DELLS      SUNNY     75  50  41 N6        30.12F
$$

...ELSEWHERE IN WISCONSIN...


CITY           SKY/WX    TMP DP  RH WIND       PRES   REMARKS
MILWAUKEE      PTSUNNY   77  63  61 VRB7      30.10R
MADISON        MOSUNNY   78  58  49 N9        30.11F
GREEN BAY      MOSUNNY   74  60  61 SW7       30.08F
EAU CLAIRE     NOT AVBL
BLACK RVR FLS  FAIR      73  52  48 W7        30.14S
MEDFORD        SUNNY     68  53  58 W5        30.13S
WAUSAU         SUNNY     70  53  54 W9        30.11F
WIS RAPIDS     SUNNY     73  55  53 NW9       30.14S
MARSHFIELD     SUNNY     71  54  54 NW9       30.13S
RICE LAKE      MOSUNNY   69  51  51 CALM      30.16S
$$

...NORTHEAST IOWA...


CITY           SKY/WX    TMP DP  RH WIND       PRES   REMARKS
WATERLOO       MOSUNNY   78  60  53 N9        30.11F
DUBUQUE        SUNNY     78  61  55 VRB3      30.13S
DECORAH        SUNNY     73  59  60 VRB3      30.14F
MASON CITY     MOSUNNY   74  55  51 N6        30.17F
CHARLES CITY   SUNNY     73  59  60 VRB5      30.15F
OELWEIN        SUNNY     75  63  64 NW6       30.15F
$$

...ELSEWHERE IN IOWA...


CITY           SKY/WX    TMP DP  RH WIND       PRES   REMARKS
DES MOINES     MOSUNNY   80  64  58 SE6       30.12F
IOWA CITY      SUNNY     80  65  59 VRB7      30.11F
FORT DODGE     MOSUNNY   72  61  68 NW5       30.16S
MARSHALLTOWN   MOSUNNY   77  64  64 VRB5      30.14S
CEDAR RAPIDS   SUNNY     79  64  60 NW6       30.10F
$$

...NORTHERN ILLINOIS...


CITY           SKY/WX    TMP DP  RH WIND       PRES   REMARKS
CHICAGO-OHARE  MOSUNNY   81  64  56 CALM      30.08F
DUPAGE         SUNNY     85  67  54 S3        30.09S
CHICAGO-MIDWAY MOSUNNY   84  68  58 SE5       30.08F
MOLINE         MOSUNNY   84  63  49 N6        30.09F
ROCKFORD       MOSUNNY   80  62  54 N5        30.12F
STERLING       MOSUNNY   82  68  61 NE7       30.10S
PEORIA         PTSUNNY   88  74  63 CALM      30.06S HX  96
$$

NOTE: "FAIR" INDICATES FEW OR NO CLOUDS BELOW 12,000 FEET WITH NO
SIGNIFICANT WEATHER AND/OR OBSTRUCTIONS TO VISIBILITY. WIND
SPEEDS ARE IN MILES-PER-HOUR.



USA.gov is the U.S. government's official web portal to all federal, state and local government web resources and services.